Location: Newark
(46.7000°N, 60.6000°W)
Time: 08:56:36
(UTC+00:00)

Vanguard 3 - Pass Details

Date: 04 November 2020
Orbit: 508 x 3262 km, 33.3° (Epoch: 29 November)

Event Time Altitude Azimuth Distance (km) Brightness Sun altitude
Rises 11:10:49 0° 265° (W) 6,356 11.2 2.5°
Reaches altitude 10° 11:14:48 10° 261° (W) 5,614 11.0 3.1°
Maximum altitude 11:31:56 49° 194° (SSW) 3,852 10.8 5.7°
Drops below altitude 10° 11:49:36 10° 127° (SE) 5,762 14.9 8.3°
Sets 11:53:47 0° 122° (ESE) 6,526 14.3 8.8°
